GOES 9 1 23581U 95025A 25136.31253741 -.00000058 00000-0 00000-0 0 9997 2 23581 13.6087 17.3894 0004717 144.9070 212.7087 0.98800367108830 GOES 11 1 26352U 00022A 25136.68030727 -.00000269 00000-0 00000-0 0 9990 2 26352 10.9624 50.2106 0002561 250.8724 314.1596 0.99044379 48543